Home   Weather   Tulkarm   Past weeks

Flag for Palestinian Territories Past Weather in Tulkarm, West Bank, Palestinian Territories — Yesterday and Last 2 Weeks

Now
64 °F

Clear.


Feels Like: 64 °F
Forecast: 46 / 70 °F
Wind: 3 mph from North

Location: Dov Airport

Current Time: Jan 23, 2017 at 7:17:47 pm

Latest Report: Jan 23, 2017 at 5:50 pm


Visibility: 10 mi

Pressure: 30.12 "Hg

Humidity: 32%

Dew Point: 34 °F

Location of TulkarmLocation

Past Weather in Tulkarm — Graph

°F

Tulkarm Temperature Yesterday

Maximum temperature yesterday: 63 °F (at 10:50 am)
Minimum temperature yesterday: 50 °F (at 5:30 am)
Average temperature yesterday: 57 °F

High & Low Weather Summary for the Past Weeks

 TemperatureHumidityPressure
High68 °F (Jan 23, 3:50 pm)94% (Jan 15, 5:30 am)30.24 "Hg (Jan 15, 5:30 am)
Low46 °F (Jan 10, 6:50 am)28% (Jan 10, 12:50 pm)29.89 "Hg (Jan 14, 11:50 pm)
Average58 °F63%30.09 "Hg
* Reported Jan 8 5:02 pm — Jan 23 5:50 pm, Tulkarm, Weather by CustomWeather, © 2017

Note: Actual official high and low records may vary slightly from our data, if they occured in-between our weather recording intervals... More about our weather records

Advertising

Tulkarm Weather History for the Previous 24 Hours

Scroll right to see more
 ConditionsComfort  
Time TempWeatherWind HumidityBarometerVisibility
5:50 pm
Mon, Jan 23
64 °FClear.3 mph32%30.12 "Hg10 mi
4:50 pm66 °FPassing clouds.5 mph30%30.09 "HgN/A
3:50 pm68 °FSunny.3 mph38%30.09 "Hg10 mi
2:50 pm66 °FSunny.8 mph37%30.09 "Hg10 mi
1:50 pm66 °FPassing clouds.8 mph40%30.09 "HgN/A
12:50 pm64 °FSunny.10 mph43%30.12 "Hg10 mi
11:50 am63 °FSunny.8 mph45%30.15 "Hg10 mi
10:50 am64 °FSunny.5 mph34%30.18 "Hg10 mi
9:50 am61 °FPassing clouds.5 mph39%30.18 "HgN/A
8:50 am55 °FPassing clouds.5 mph51%30.18 "HgN/A
7:50 am48 °FSunny.3 mph66%30.21 "Hg10 mi
6:50 am46 °FSunny.1 mph71%30.18 "Hg10 mi
5:50 am46 °FClear.2 mph71%30.21 "Hg10 mi
5:30 am46 °FClear.3 mph71%30.21 "Hg10 mi
11:50 pm
Sun, Jan 22
52 °FClear.6 mph62%30.24 "Hg10 mi
10:50 pm54 °FClear.6 mph58%30.24 "Hg10 mi
9:50 pm54 °FClear.5 mph58%30.24 "Hg10 mi
8:50 pm55 °FClear.5 mph55%30.24 "Hg10 mi
7:50 pm57 °FClear.7 mph51%30.24 "Hg10 mi
Weather by CustomWeather, © 2017

See weather overviewHow to use our weather pages